QPF
0.00 0.00 0.00 0.00 0.00 0.00 0.00 0.00 0.00 0.00 0.00 0.00 0.00 0.01 0.01 0.01 0.01 0.01 0.01 0.02 0.03 0.04 0.04 0.04 0.04 0.04 0.05 0.05 0.06 0.08 0.11 0.15 0.17 0.21 0.27 0.28 0.28 0.32 0.38 0.41 0.36 0.26 0.20 0.18
0.00 0.00 0.00 0.00 0.00 0.00 0.00 0.00 0.00 0.00 0.00 0.00 0.00 0.01 0.01 0.00 0.00 0.01 0.01 0.01 0.02 0.03 0.02 0.02 0.02 0.02 0.03 0.02 0.02 0.03 0.04 0.06 0.09 0.12 0.16 0.20 0.24 0.28 0.35 0.44 0.40 0.30 0.25 0.22
0.00 0.00 0.00 0.00 0.00 0.00 0.00 0.00 0.00 0.00 0.00 0.00 0.01 0.01 0.00 0.01 0.01 0.01 0.01 0.02 0.02 0.03 0.03 0.02 0.02 0.02 0.02 0.01 0.02 0.01 0.02 0.02 0.04 0.05 0.07 0.11 0.17 0.20 0.21 0.23 0.29 0.32 0.29 0.26
0.00 0.00 0.00 0.00 0.00 0.00 0.00 0.00 0.00 0.00 0.00 0.00 0.01 0.01 0.01 0.01 0.02 0.02 0.02 0.02 0.03 0.03 0.02 0.02 0.01 0.02 0.01 0.01 0.00 0.00 0.00 0.01 0.01 0.02 0.03 0.05 0.07 0.09 0.12 0.20 0.28 0.31 0.26 0.25
0.00 0.00 0.00 0.00 0.00 0.00 0.00 0.00 0.00 0.00 0.00 0.00 0.00 0.01 0.01 0.01 0.01 0.02 0.03 0.03 0.02 0.02 0.02 0.02 0.01 0.01 0.01 0.01 0.00 0.00 0.00 0.00 0.01 0.01 0.01 0.02 0.04 0.05 0.08 0.16 0.23 0.23 0.25 0.28
0.00 0.00 0.00 0.00 0.00 0.00 0.00 0.00 0.00 0.00 0.00 0.00 0.00 0.01 0.01 0.01 0.02 0.02 0.02 0.02 0.02 0.03 0.03 0.03 0.02 0.02 0.01 0.01 0.01 0.01 0.01 0.01 0.01 0.01 0.01 0.01 0.01 0.02 0.04 0.06 0.10 0.15 0.20 0.27
0.00 0.00 0.00 0.00 0.00 0.00 0.00 0.00 0.00 0.00 0.00 0.00 0.00 0.00 0.01 0.02 0.02 0.02 0.03 0.02 0.02 0.03 0.03 0.03 0.03 0.02 0.01 0.01 0.01 0.02 0.02 0.02 0.02 0.01 0.01 0.01 0.01 0.01 0.02 0.03 0.06 0.09 0.13 0.18
0.00 0.00 0.00 0.00 0.00 0.00 0.00 0.00 0.00 0.00 0.00 0.00 0.00 0.00 0.01 0.01 0.01 0.02 0.02 0.02 0.02 0.05 0.06 0.06 0.06 0.04 0.03 0.02 0.03 0.03 0.03 0.03 0.02 0.02 0.02 0.01 0.01 0.01 0.02 0.03 0.05 0.08 0.10 0.14
0.00 0.00 0.00 0.00 0.00 0.00 0.00 0.00 0.00 0.00 0.00 0.00 0.01 0.01 0.01 0.01 0.01 0.02 0.02 0.03 0.04 0.06 0.08 0.10 0.10 0.09 0.06 0.05 0.05 0.04 0.04 0.04 0.04 0.03 0.02 0.01 0.01 0.02 0.02 0.03 0.04 0.06 0.08 0.10
0.00 0.00 0.00 0.00 0.00 0.00 0.00 0.00 0.00 0.00 0.00 0.00 0.01 0.03 0.02 0.01 0.01 0.03 0.04 0.05 0.05 0.05 0.07 0.11 0.14 0.19 0.15 0.11 0.10 0.09 0.07 0.06 0.05 0.03 0.03 0.02 0.02 0.03 0.03 0.04 0.04 0.06 0.07 0.09
0.00 0.00 0.00 0.00 0.00 0.00 0.00 0.00 0.00 0.00 0.00 0.01 0.01 0.02 0.01 0.02 0.03 0.04 0.04 0.05 0.07 0.06 0.06 0.08 0.10 0.16 0.22 0.20 0.17 0.15 0.10 0.06 0.05 0.04 0.03 0.03 0.04 0.03 0.04 0.04 0.03 0.04 0.06 0.08
0.00 0.00 0.00 0.00 0.00 0.00 0.00 0.00 0.00 0.00 0.00 0.00 0.00 0.01 0.01 0.01 0.01 0.03 0.03 0.04 0.05 0.06 0.07 0.06 0.07 0.09 0.12 0.15 0.14 0.12 0.11 0.10 0.08 0.07 0.05 0.04 0.04 0.03 0.03 0.04 0.03 0.04 0.04 0.05
0.00 0.00 0.00 0.00 0.00 0.00 0.00 0.00 0.00 0.00 0.00 0.00 0.00 0.01 0.01 0.01 0.01 0.02 0.04 0.05 0.04 0.05 0.05 0.04 0.04 0.05 0.09 0.10 0.10 0.08 0.08 0.08 0.08 0.05 0.04 0.04 0.03 0.04 0.04 0.03 0.03 0.03 0.04 0.05
0.00 0.00 0.00 0.00 0.00 0.00 0.00 0.00 0.00 0.00 0.00 0.00 0.00 0.01 0.01 0.01 0.01 0.01 0.02 0.04 0.04 0.04 0.03 0.02 0.02 0.02 0.04 0.06 0.06 0.06 0.05 0.04 0.04 0.04 0.04 0.04 0.03 0.03 0.04 0.04 0.04 0.04 0.05 0.05
0.00 0.00 0.00 0.00 0.00 0.00 0.00 0.00 0.00 0.00 0.00 0.00 0.00 0.00 0.00 0.00 0.00 0.00 0.01 0.01 0.02 0.02 0.02 0.01 0.01 0.01 0.01 0.01 0.02 0.02 0.02 0.02 0.02 0.03 0.03 0.02 0.03 0.02 0.02 0.02 0.03 0.03 0.04 0.04
0.00 0.00 0.00 0.00 0.00 0.00 0.00 0.00 0.00 0.00 0.00 0.00 0.00 0.00 0.00 0.00 0.00 0.00 0.00 0.00 0.01 0.01 0.01 0.01 0.00 0.00 0.00 0.00 0.00 0.00 0.00 0.00 0.00 0.01 0.01 0.01 0.01 0.01 0.01 0.01 0.01 0.01 0.01 0.02
0.00 0.00 0.00 0.00 0.00 0.00 0.00 0.00 0.00 0.00 0.00 0.00 0.00 0.00 0.00 0.00 0.00 0.00 0.00 0.00 0.00 0.00 0.00 0.00 0.00 0.00 0.00 0.00 0.00 0.00 0.00 0.00 0.00 0.00 0.00 0.00 0.00 0.00 0.00 0.01 0.01 0.01 0.01 0.01
0.00 0.00 0.00 0.00 0.00 0.00 0.00 0.00 0.00 0.00 0.00 0.00 0.00 0.00 0.00 0.00 0.00 0.00 0.00 0.00 0.00 0.00 0.00 0.00 0.00 0.00 0.00 0.00 0.00 0.00 0.00 0.00 0.00 0.00 0.00 0.00 0.00 0.00 0.00 0.00 0.00 0.00 0.00 0.00
0.00 0.00 0.00 0.00 0.00 0.00 0.00 0.00 0.00 0.00 0.00 0.00 0.00 0.00 0.00 0.00 0.00 0.00 0.00 0.00 0.00 0.00 0.00 0.00 0.00 0.00 0.00 0.00 0.00 0.00 0.00 0.00 0.00 0.00 0.00 0.00 0.00 0.00 0.00 0.00 0.00 0.00 0.00 0.00
0.00 0.00 0.00 0.00 0.00 0.00 0.00 0.00 0.00 0.00 0.00 0.00 0.00 0.00 0.00 0.00 0.00 0.00 0.00 0.00 0.00 0.00 0.00 0.00 0.00 0.00 0.00 0.00 0.00 0.00 0.00 0.00 0.00 0.00 0.00 0.00 0.00 0.00 0.00 0.00 0.00 0.00 0.00 0.00
0.00 0.00 0.00 0.00 0.00 0.00 0.00 0.00 0.00 0.00 0.00 0.00 0.00 0.00 0.00 0.00 0.00 0.00 0.00 0.00 0.00 0.00 0.00 0.00 0.00 0.00 0.00 0.00 0.00 0.00 0.00 0.00 0.00 0.00 0.00 0.00 0.00 0.00 0.00 0.00 0.00 0.00 0.00 0.00
0.00 0.00 0.00 0.00 0.00 0.00 0.00 0.00 0.00 0.00 0.00 0.00 0.00 0.00 0.00 0.00 0.00 0.00 0.00 0.00 0.00 0.00 0.00 0.00 0.00 0.00 0.00 0.00 0.00 0.00 0.00 0.00 0.00 0.00 0.00 0.00 0.00 0.00 0.00 0.00 0.00 0.00 0.00 0.00
0.00 0.00 0.00 0.00 0.00 0.00 0.00 0.00 0.00 0.00 0.00 0.00 0.00 0.00 0.00 0.00 0.00 0.00 0.00 0.00 0.00 0.00 0.00 0.00 0.00 0.00 0.00 0.00 0.00 0.00 0.00 0.00 0.00 0.00 0.00 0.00 0.00 0.00 0.00 0.00 0.00 0.00 0.00 0.00
0.00 0.00 0.00 0.00 0.00 0.00 0.00 0.00 0.00 0.00 0.00 0.00 0.00 0.00 0.00 0.00 0.00 0.00 0.00 0.00 0.00 0.00 0.00 0.00 0.00 0.00 0.00 0.00 0.00 0.00 0.00 0.00 0.00 0.00 0.00 0.00 0.00 0.00 0.00 0.00 0.00 0.00 0.00 0.00
0.00 0.00 0.00 0.00 0.00 0.00 0.00 0.00 0.00 0.00 0.00 0.00 0.00 0.00 0.00 0.00 0.00 0.00 0.00 0.00 0.00 0.00 0.00 0.00 0.00 0.00 0.00 0.00 0.00 0.00 0.00 0.00 0.00 0.00 0.00 0.00 0.00 0.00 0.00 0.00 0.00 0.00 0.00 0.00
0.00 0.00 0.00 0.00 0.00 0.00 0.00 0.00 0.00 0.00 0.00 0.00 0.00 0.00 0.00 0.00 0.00 0.00 0.00 0.00 0.00 0.00 0.00 0.00 0.00 0.00 0.00 0.00 0.00 0.00 0.00 0.00 0.00 0.00 0.00 0.00 0.00 0.00 0.00 0.00 0.00 0.00 0.00 0.00
MSLP
1016.26 1017.42 1018.35 1019.01 1019.44 1019.69 1019.86 1020.04 1020.32 1020.73 1021.26 1021.86 1022.44 1022.94 1023.26 1023.35 1023.20 1022.83 1022.30 1021.67 1021.01 1020.36 1019.78 1019.25 1018.77 1018.31 1017.85 1017.35 1016.82 1016.26 1015.68 1015.12 1014.59 1014.11 1013.70 1013.35 1013.05 1012.81 1012.63 1012.51 1012.46 1012.51 1012.66 1012.94
1017.85 1018.92 1019.72 1020.25 1020.55 1020.70 1020.79 1020.93 1021.18 1021.57 1022.08 1022.65 1023.20 1023.65 1023.92 1023.95 1023.75 1023.34 1022.77 1022.11 1021.42 1020.75 1020.13 1019.57 1019.05 1018.55 1018.04 1017.51 1016.96 1016.40 1015.84 1015.30 1014.79 1014.32 1013.89 1013.49 1013.11 1012.76 1012.45 1012.19 1012.02 1011.97 1012.06 1012.31
1019.21 1020.13 1020.79 1021.18 1021.38 1021.45 1021.51 1021.63 1021.88 1022.28 1022.78 1023.34 1023.85 1024.25 1024.45 1024.42 1024.16 1023.70 1023.09 1022.40 1021.68 1020.98 1020.33 1019.72 1019.15 1018.60 1018.05 1017.50 1016.95 1016.40 1015.88 1015.38 1014.92 1014.48 1014.05 1013.62 1013.19 1012.75 1012.32 1011.95 1011.67 1011.52 1011.54 1011.74
1020.28 1021.02 1021.51 1021.78 1021.90 1021.95 1022.02 1022.18 1022.48 1022.91 1023.44 1023.98 1024.46 1024.80 1024.94 1024.84 1024.51 1023.99 1023.34 1022.61 1021.85 1021.11 1020.41 1019.75 1019.12 1018.52 1017.93 1017.35 1016.79 1016.26 1015.78 1015.33 1014.92 1014.53 1014.13 1013.70 1013.24 1012.74 1012.25 1011.79 1011.42 1011.19 1011.14 1011.28
1021.08 1021.61 1021.94 1022.11 1022.19 1022.25 1022.38 1022.63 1023.01 1023.52 1024.08 1024.63 1025.08 1025.36 1025.42 1025.24 1024.84 1024.26 1023.55 1022.78 1021.98 1021.20 1020.45 1019.74 1019.05 1018.39 1017.74 1017.13 1016.55 1016.03 1015.57 1015.17 1014.80 1014.46 1014.09 1013.69 1013.23 1012.72 1012.20 1011.69 1011.28 1010.99 1010.88 1010.98
1021.64 1021.98 1022.17 1022.27 1022.34 1022.46 1022.68 1023.05 1023.55 1024.14 1024.75 1025.30 1025.72 1025.94 1025.92 1025.65 1025.16 1024.52 1023.76 1022.94 1022.11 1021.29 1020.50 1019.74 1018.99 1018.27 1017.57 1016.91 1016.30 1015.77 1015.31 1014.93 1014.59 1014.28 1013.96 1013.60 1013.17 1012.69 1012.17 1011.68 1011.25 1010.94 1010.80 1010.85
1022.05 1022.22 1022.30 1022.36 1022.46 1022.66 1023.01 1023.50 1024.11 1024.78 1025.44 1025.98 1026.36 1026.50 1026.39 1026.03 1025.46 1024.75 1023.94 1023.09 1022.24 1021.40 1020.59 1019.79 1019.00 1018.23 1017.48 1016.77 1016.12 1015.54 1015.07 1014.68 1014.35 1014.06 1013.77 1013.45 1013.08 1012.65 1012.19 1011.74 1011.34 1011.05 1010.90 1010.91
1022.36 1022.40 1022.42 1022.48 1022.64 1022.94 1023.40 1024.01 1024.72 1025.45 1026.11 1026.63 1026.94 1026.99 1026.78 1026.33 1025.69 1024.92 1024.08 1023.22 1022.36 1021.52 1020.71 1019.90 1019.09 1018.29 1017.50 1016.75 1016.05 1015.44 1014.92 1014.50 1014.16 1013.88 1013.61 1013.33 1013.01 1012.65 1012.27 1011.89 1011.55 1011.30 1011.16 1011.15
1022.60 1022.59 1022.60 1022.69 1022.92 1023.32 1023.88 1024.57 1025.33 1026.08 1026.72 1027.18 1027.40 1027.35 1027.05 1026.51 1025.80 1025.00 1024.14 1023.28 1022.44 1021.63 1020.84 1020.06 1019.26 1018.46 1017.66 1016.88 1016.15 1015.49 1014.93 1014.47 1014.11 1013.81 1013.55 1013.30 1013.03 1012.75 1012.45 1012.15 1011.88 1011.68 1011.56 1011.54
1022.78 1022.77 1022.82 1022.98 1023.29 1023.77 1024.40 1025.14 1025.91 1026.63 1027.21 1027.58 1027.69 1027.54 1027.14 1026.53 1025.77 1024.94 1024.09 1023.26 1022.47 1021.71 1020.97 1020.24 1019.49 1018.72 1017.94 1017.16 1016.42 1015.74 1015.15 1014.65 1014.25 1013.92 1013.66 1013.43 1013.20 1012.97 1012.75 1012.53 1012.33 1012.18 1012.08 1012.05
1022.88 1022.95 1023.08 1023.33 1023.72 1024.26 1024.92 1025.66 1026.39 1027.04 1027.52 1027.77 1027.78 1027.52 1027.04 1026.38 1025.60 1024.77 1023.95 1023.16 1022.43 1021.73 1021.07 1020.41 1019.73 1019.03 1018.30 1017.57 1016.85 1016.18 1015.57 1015.06 1014.63 1014.28 1014.00 1013.76 1013.56 1013.37 1013.19 1013.03 1012.88 1012.76 1012.68 1012.63
1022.91 1023.09 1023.34 1023.68 1024.14 1024.72 1025.38 1026.07 1026.72 1027.26 1027.62 1027.76 1027.66 1027.33 1026.79 1026.10 1025.32 1024.52 1023.74 1023.01 1022.34 1021.72 1021.14 1020.56 1019.97 1019.35 1018.70 1018.04 1017.38 1016.75 1016.17 1015.66 1015.22 1014.86 1014.56 1014.31 1014.10 1013.93 1013.77 1013.64 1013.52 1013.41 1013.33 1013.26
1022.91 1023.22 1023.57 1024.00 1024.51 1025.09 1025.71 1026.33 1026.87 1027.29 1027.53 1027.57 1027.38 1026.99 1026.43 1025.75 1025.01 1024.26 1023.53 1022.86 1022.25 1021.70 1021.18 1020.68 1020.17 1019.64 1019.09 1018.53 1017.96 1017.40 1016.88 1016.40 1015.98 1015.61 1015.30 1015.03 1014.81 1014.62 1014.46 1014.33 1014.21 1014.11 1014.01 1013.91
1022.93 1023.35 1023.80 1024.28 1024.81 1025.36 1025.91 1026.42 1026.84 1027.13 1027.26 1027.21 1026.97 1026.57 1026.02 1025.39 1024.70 1024.02 1023.36 1022.74 1022.19 1021.68 1021.21 1020.77 1020.33 1019.88 1019.43 1018.97 1018.51 1018.05 1017.61 1017.20 1016.81 1016.46 1016.14 1015.86 1015.61 1015.40 1015.22 1015.07 1014.94 1014.82 1014.70 1014.57
1023.04 1023.54 1024.03 1024.53 1025.02 1025.50 1025.95 1026.33 1026.63 1026.80 1026.84 1026.72 1026.47 1026.08 1025.60 1025.04 1024.44 1023.84 1023.24 1022.69 1022.17 1021.68 1021.24 1020.82 1020.43 1020.05 1019.68 1019.32 1018.97 1018.63 1018.29 1017.96 1017.63 1017.31 1017.00 1016.72 1016.45 1016.21 1016.00 1015.83 1015.67 1015.52 1015.37 1015.21
1023.29 1023.81 1024.29 1024.75 1025.16 1025.54 1025.85 1026.10 1026.26 1026.32 1026.28 1026.14 1025.90 1025.57 1025.17 1024.72 1024.22 1023.71 1023.19 1022.68 1022.18 1021.71 1021.26 1020.84 1020.47 1020.13 1019.82 1019.56 1019.31 1019.08 1018.85 1018.61 1018.36 1018.09 1017.81 1017.53 1017.25 1016.99 1016.76 1016.56 1016.37 1016.20 1016.03 1015.85
1023.69 1024.16 1024.58 1024.94 1025.23 1025.46 1025.62 1025.72 1025.75 1025.71 1025.61 1025.46 1025.26 1025.01 1024.72 1024.39 1024.01 1023.60 1023.16 1022.69 1022.21 1021.72 1021.26 1020.83 1020.45 1020.12 1019.86 1019.66 1019.51 1019.38 1019.25 1019.12 1018.95 1018.75 1018.51 1018.25 1017.98 1017.71 1017.46 1017.24 1017.04 1016.85 1016.66 1016.45
1024.18 1024.55 1024.85 1025.07 1025.20 1025.27 1025.26 1025.21 1025.11 1024.99 1024.85 1024.71 1024.56 1024.40 1024.23 1024.02 1023.77 1023.47 1023.10 1022.68 1022.21 1021.72 1021.23 1020.77 1020.37 1020.05 1019.82 1019.67 1019.58 1019.54 1019.51 1019.47 1019.39 1019.26 1019.08 1018.86 1018.61 1018.35 1018.10 1017.86 1017.65 1017.45 1017.25 1017.03
1024.63 1024.87 1025.02 1025.07 1025.04 1024.93 1024.76 1024.56 1024.36 1024.16 1024.00 1023.87 1023.78 1023.72 1023.66 1023.58 1023.45 1023.25 1022.96 1022.59 1022.15 1021.66 1021.16 1020.69 1020.27 1019.95 1019.73 1019.61 1019.58 1019.61 1019.66 1019.71 1019.71 1019.66 1019.54 1019.36 1019.15 1018.91 1018.67 1018.44 1018.22 1018.01 1017.80 1017.57
1024.90 1024.99 1024.98 1024.88 1024.68 1024.42 1024.11 1023.80 1023.51 1023.26 1023.08 1022.98 1022.94 1022.96 1023.01 1023.04 1023.02 1022.92 1022.72 1022.42 1022.02 1021.55 1021.06 1020.58 1020.17 1019.85 1019.64 1019.55 1019.56 1019.64 1019.76 1019.88 1019.95 1019.97 1019.92 1019.80 1019.63 1019.42 1019.20 1018.98 1018.76 1018.55 1018.33 1018.09
1024.86 1024.81 1024.66 1024.41 1024.09 1023.71 1023.31 1022.92 1022.58 1022.31 1022.13 1022.06 1022.08 1022.17 1022.30 1022.43 1022.51 1022.51 1022.39 1022.16 1021.82 1021.40 1020.94 1020.49 1020.10 1019.79 1019.60 1019.53 1019.57 1019.69 1019.86 1020.03 1020.16 1020.24 1020.25 1020.19 1020.07 1019.90 1019.71 1019.50 1019.29 1019.08 1018.85 1018.59
1024.42 1024.26 1024.00 1023.66 1023.25 1022.81 1022.36 1021.95 1021.60 1021.35 1021.20 1021.17 1021.24 1021.39 1021.60 1021.80 1021.96 1022.04 1022.01 1021.86 1021.59 1021.24 1020.84 1020.44 1020.08 1019.80 1019.64 1019.59 1019.65 1019.80 1019.99 1020.19 1020.37 1020.50 1020.56 1020.56 1020.48 1020.36 1020.20 1020.02 1019.81 1019.60 1019.35 1019.08
1023.59 1023.34 1023.01 1022.62 1022.19 1021.74 1021.32 1020.94 1020.64 1020.43 1020.34 1020.36 1020.48 1020.69 1020.95 1021.21 1021.43 1021.58 1021.62 1021.55 1021.37 1021.10 1020.77 1020.44 1020.13 1019.90 1019.76 1019.73 1019.80 1019.95 1020.15 1020.37 1020.58 1020.74 1020.85 1020.89 1020.87 1020.79 1020.66 1020.51 1020.32 1020.11 1019.86 1019.58
1022.43 1022.12 1021.76 1021.36 1020.96 1020.57 1020.22 1019.93 1019.72 1019.61 1019.59 1019.68 1019.86 1020.11 1020.41 1020.71 1020.98 1021.17 1021.28 1021.28 1021.18 1021.00 1020.75 1020.49 1020.24 1020.05 1019.94 1019.92 1019.99 1020.13 1020.33 1020.55 1020.76 1020.94 1021.08 1021.16 1021.19 1021.16 1021.08 1020.96 1020.80 1020.60 1020.36 1020.08
1021.06 1020.71 1020.34 1019.99 1019.66 1019.38 1019.15 1018.99 1018.91 1018.90 1018.99 1019.16 1019.40 1019.69 1020.01 1020.34 1020.63 1020.86 1021.02 1021.08 1021.05 1020.94 1020.77 1020.58 1020.39 1020.24 1020.14 1020.12 1020.17 1020.30 1020.47 1020.67 1020.87 1021.06 1021.22 1021.34 1021.41 1021.43 1021.40 1021.33 1021.21 1021.04 1020.83 1020.57
1019.62 1019.24 1018.90 1018.60 1018.38 1018.22 1018.14 1018.13 1018.20 1018.33 1018.53 1018.78 1019.08 1019.41 1019.75 1020.09 1020.39 1020.64 1020.82 1020.93 1020.95 1020.91 1020.80 1020.67 1020.53 1020.40 1020.32 1020.28 1020.31 1020.39 1020.52 1020.69 1020.87 1021.06 1021.23 1021.37 1021.48 1021.56 1021.59 1021.57 1021.51 1021.40 1021.24 1021.02
Thickness
5750 5733 5716 5718 5723 5723 5717 5708 5700 5698 5699 5689 5677 5670 5670 5674 5676 5674 5673 5674 5677 5681 5686 5690 5695 5699 5703 5708 5712 5717 5722 5727 5733 5737 5741 5744 5747 5750 5752 5753 5754 5754 5753 5751
5725 5711 5718 5722 5719 5712 5706 5695 5689 5687 5690 5679 5665 5660 5662 5663 5660 5660 5660 5660 5663 5668 5673 5677 5681 5684 5688 5693 5698 5703 5708 5714 5720 5726 5732 5737 5742 5746 5749 5750 5751 5752 5751 5750
5710 5709 5717 5710 5700 5697 5693 5686 5683 5678 5673 5666 5657 5648 5646 5649 5651 5651 5651 5650 5651 5654 5656 5661 5665 5668 5673 5678 5683 5690 5695 5701 5708 5715 5721 5728 5734 5739 5741 5744 5747 5749 5749 5749
5707 5708 5705 5697 5690 5687 5679 5685 5680 5674 5658 5643 5646 5631 5631 5633 5635 5638 5638 5639 5639 5641 5644 5647 5651 5655 5659 5664 5670 5677 5682 5689 5696 5704 5710 5716 5722 5727 5733 5737 5741 5743 5745 5745
5700 5701 5694 5688 5687 5685 5679 5679 5672 5665 5649 5632 5627 5622 5617 5622 5621 5624 5626 5627 5628 5630 5633 5636 5639 5643 5647 5652 5658 5665 5672 5678 5686 5693 5700 5707 5713 5720 5725 5730 5733 5735 5738 5738
5699 5701 5695 5688 5688 5684 5676 5671 5661 5646 5634 5616 5614 5612 5607 5607 5609 5614 5617 5618 5619 5621 5623 5627 5631 5634 5638 5642 5647 5654 5661 5668 5676 5683 5691 5698 5705 5712 5717 5721 5724 5727 5729 5730
5686 5686 5688 5688 5677 5674 5663 5650 5635 5628 5612 5608 5613 5607 5601 5606 5608 5607 5608 5610 5612 5614 5615 5618 5622 5627 5630 5634 5639 5645 5652 5659 5667 5674 5682 5689 5696 5703 5708 5712 5715 5718 5720 5721
5674 5664 5676 5677 5669 5661 5652 5641 5625 5617 5607 5603 5606 5600 5600 5608 5607 5607 5606 5607 5608 5609 5610 5612 5616 5621 5625 5629 5634 5639 5645 5651 5658 5666 5673 5680 5687 5693 5699 5703 5706 5709 5711 5713
5669 5665 5679 5677 5670 5663 5650 5633 5631 5614 5608 5599 5598 5601 5605 5608 5605 5604 5604 5605 5606 5606 5608 5610 5614 5619 5623 5626 5630 5634 5639 5645 5651 5658 5665 5671 5677 5683 5688 5692 5696 5699 5702 5704
5678 5665 5669 5671 5668 5657 5647 5635 5620 5611 5602 5595 5596 5594 5590 5596 5598 5600 5600 5601 5603 5605 5607 5609 5613 5617 5620 5624 5627 5632 5636 5640 5646 5652 5657 5663 5667 5673 5677 5681 5685 5688 5691 5693
5681 5663 5660 5660 5652 5643 5640 5631 5616 5604 5601 5592 5586 5589 5601 5597 5597 5596 5598 5600 5602 5604 5606 5608 5612 5615 5619 5622 5626 5629 5632 5637 5641 5646 5650 5655 5659 5664 5667 5670 5673 5676 5679 5681
5677 5658 5649 5655 5658 5655 5643 5631 5620 5608 5597 5592 5587 5589 5608 5603 5601 5600 5601 5603 5604 5605 5608 5609 5611 5614 5617 5620 5624 5627 5630 5633 5637 5641 5644 5648 5652 5655 5658 5661 5663 5666 5667 5669
5680 5661 5645 5646 5646 5647 5641 5633 5622 5610 5599 5593 5590 5595 5611 5607 5607 5606 5606 5606 5607 5608 5611 5612 5613 5614 5616 5620 5622 5625 5627 5630 5633 5637 5640 5643 5645 5648 5650 5652 5654 5657 5658 5659
5683 5660 5651 5646 5643 5644 5639 5634 5627 5616 5601 5599 5599 5602 5609 5610 5609 5609 5610 5611 5612 5613 5614 5615 5616 5617 5618 5620 5622 5624 5626 5628 5631 5633 5636 5637 5639 5641 5643 5645 5647 5648 5649 5649
5685 5663 5661 5657 5657 5651 5644 5638 5631 5623 5614 5606 5610 5609 5612 5614 5613 5613 5614 5615 5617 5618 5619 5620 5620 5621 5622 5622 5623 5624 5625 5627 5629 5630 5631 5633 5635 5636 5638 5638 5639 5639 5640 5640
5682 5669 5664 5658 5658 5654 5646 5642 5636 5630 5623 5619 5617 5616 5623 5623 5621 5620 5620 5621 5621 5623 5624 5625 5626 5626 5626 5626 5626 5626 5626 5627 5628 5628 5628 5629 5631 5631 5632 5632 5632 5632 5632 5632
5676 5670 5658 5650 5656 5651 5643 5647 5642 5638 5634 5629 5622 5625 5631 5629 5629 5628 5628 5627 5627 5628 5630 5630 5631 5630 5630 5630 5629 5628 5628 5628 5628 5627 5627 5627 5627 5627 5627 5627 5627 5626 5624 5624
5679 5667 5652 5648 5652 5645 5656 5663 5656 5648 5646 5640 5638 5637 5637 5636 5636 5637 5636 5635 5634 5636 5636 5637 5637 5636 5636 5636 5634 5633 5631 5630 5628 5627 5626 5626 5625 5624 5623 5623 5621 5620 5619 5618
5685 5672 5656 5647 5647 5651 5664 5667 5661 5653 5650 5653 5647 5647 5646 5645 5642 5641 5646 5645 5643 5643 5643 5643 5643 5643 5642 5640 5639 5637 5634 5632 5630 5627 5626 5624 5623 5622 5621 5619 5617 5615 5614 5612
5683 5676 5662 5652 5658 5658 5674 5679 5675 5664 5654 5665 5659 5654 5651 5647 5634 5638 5650 5651 5651 5651 5650 5650 5649 5648 5647 5645 5643 5640 5637 5634 5631 5628 5626 5624 5622 5620 5618 5616 5614 5611 5609 5607
5685 5674 5665 5658 5659 5667 5686 5684 5678 5654 5662 5676 5670 5664 5657 5650 5647 5652 5655 5656 5656 5656 5655 5655 5653 5651 5650 5649 5646 5643 5640 5636 5634 5631 5629 5626 5623 5620 5617 5614 5611 5608 5605 5603
5685 5675 5667 5659 5661 5672 5693 5686 5678 5680 5687 5683 5677 5672 5666 5663 5662 5662 5662 5661 5660 5659 5659 5658 5656 5655 5654 5652 5650 5646 5643 5640 5637 5634 5630 5626 5623 5621 5617 5613 5610 5606 5603 5600
5692 5693 5685 5683 5692 5704 5702 5703 5704 5699 5692 5688 5683 5679 5675 5670 5668 5669 5667 5665 5664 5663 5661 5660 5658 5657 5656 5655 5653 5649 5647 5644 5640 5635 5631 5627 5623 5619 5616 5612 5609 5605 5602 5598
5701 5700 5695 5693 5703 5708 5708 5708 5708 5704 5700 5696 5691 5686 5681 5677 5675 5673 5669 5667 5666 5665 5663 5662 5661 5659 5658 5657 5656 5653 5651 5647 5642 5637 5632 5628 5624 5619 5616 5612 5608 5605 5601 5597
5713 5700 5699 5702 5711 5714 5715 5713 5712 5708 5705 5700 5695 5691 5687 5682 5679 5676 5672 5670 5668 5667 5665 5664 5662 5661 5660 5660 5659 5657 5654 5650 5644 5639 5635 5630 5625 5620 5616 5613 5609 5605 5601 5598
5714 5712 5710 5714 5724 5720 5723 5724 5719 5712 5707 5704 5699 5693 5690 5687 5683 5680 5675 5673 5671 5669 5668 5666 5665 5664 5663 5662 5660 5659 5657 5653 5648 5642 5637 5632 5627 5623 5619 5615 5611 5608 5605 5602